Regional Weather Roundup
Issued by NWS

Home | Current Version | Previous Version | Graphics & Text | Print | Product List | Glossary On
Versions: 1 2 3 4 5 6 7 8 9 10 11 12 13 14 15 16 17 18 19 20 21 22 23 24 25 26 27 28 29 30 31 32 33 34 35 36 37 38 39 40 41 42 43 44 45 46 47 48 49 50
000
ASUS45 KBOI 060010
RWRID

IDAHO REGIONAL WEATHER ROUNDUP
NATIONAL WEATHER SERVICE BOISE ID
600 PM MDT SUN JUL 05 2015

NOTE: "FAIR" INDICATES FEW OR NO CLOUDS BELOW 12000 FEET
WITH NO SIGNIFICANT WEATHER AND/OR OBSTRUCTIONS TO VISIBILITY

IDZ012-014-060100-
SOUTHWEST IDAHO


CITY           SKY/WX    TMP DP  RH WIND       PRES   REMARKS
BOISE          LGT RAIN  76  59  55 E6        29.98R
CALDWELL       CLOUDY    81  55  41 S6        29.94S
MOUNTAIN HOME  CLOUDY    82  52  34 N13       29.96S
$$

IDZ016-017-060100-
SOUTHCENTRAL IDAHO


CITY           SKY/WX    TMP DP  RH WIND       PRES   REMARKS
BURLEY         CLOUDY    73  58  59 SW15      30.00S
JEROME         CLOUDY    80  51  36 W10       30.00S
TWIN FALLS     CLOUDY    84  49  29 W13       29.99S
$$

IDZ019>023-060100-
SOUTHEAST IDAHO


CITY           SKY/WX    TMP DP  RH WIND       PRES   REMARKS
IDAHO FALLS    PTSUNNY   82  50  32 S15       30.00F
POCATELLO      PTSUNNY   82  52  35 SW15      30.00F
REXBURG        PTSUNNY   79  50  36 S14       30.00F
$$

IDZ006-010-011-018-031-032-060100-
CENTRAL IDAHO MOUNTAINS


CITY           SKY/WX    TMP DP  RH WIND       PRES   REMARKS
MCCALL         CLOUDY    77  46  33 S9        30.05R
HAILEY         CLOUDY    75  48  38 NW12      30.04
STANLEY          N/A     66  41  40 S8        30.19R
SALMON         CLOUDY    82  48  30 SW10      29.86S
CHALLIS        CLOUDY    80  40  23 SW12      30.00R
$$

IDZ002-004-006-007-026-060100-
NORTHERN IDAHO


CITY           SKY/WX    TMP DP  RH WIND       PRES   REMARKS
LEWISTON       SUNNY     98  45  16 NW14      29.78F HX  94
LOWELL           N/A     99  48  17 CALM      29.76S HX  95
COEUR D`ALENE  MOSUNNY   84  46  26 N21       29.93R
MULLAN PASS    MOSUNNY   69  49  48 VRB5      30.14R
$$



USA.gov is the U.S. government's official web portal to all federal, state and local government web resources and services.